Tracking 25949 objects as of 9-Aug-2022
HD Live streaming from Space Station
objects crossing your sky now

BEIDOU G7

Track BEIDOU G7 now!
BEIDOU G7 is classified as:


NORAD ID: 41586
Int'l Code: 2016-037A
Perigee: 35,754.3 km
Apogee: 35,829.9 km
Inclination: 1.5 °
Period: 1,436.0 minutes
Semi major axis: 42163 km
RCS: Unknown
Launch date: June 12, 2016
Source: People's Republic of China (PRC)
Launch site: Xichang Space Center, China (XSC)
aabbcc
Your satellite tracking list
Your tracking list is empty




NASA's NSSDC Master Catalog

Two Line Element Set (TLE):
1 41586U 16037A   22221.01994068 -.00000361  00000-0  00000+0 0  9997
2 41586   1.4865  66.8898 0008967 359.8290   8.3177  1.00277763 22666
Source of the keplerian elements: AFSPC